Time,TemperatureF,DewpointF,PressureIn,WindDirection,WindDirectionDegrees,WindSpeedMPH,WindSpeedGustMPH,Humidity,HourlyPrecipIn,Conditions,Clouds,dailyrainin,SoftwareType,DateUTC
2013-06-09 00:08:00,60.2,56.0,30.08,WSW,246,4.0,7.0,85,0.01,,,0.02,weatherlink.com 1.10,2013-06-09 04:08:00,
2013-06-09 00:23:00,59.8,55.0,30.08,SW,228,2.0,7.0,85,0.01,,,0.02,weatherlink.com 1.10,2013-06-09 04:23:00,
2013-06-09 00:38:00,59.3,55.0,30.08,SW,226,3.0,4.0,86,0.01,,,0.02,weatherlink.com 1.10,2013-06-09 04:38:00,
2013-06-09 00:53:00,59.1,55.0,30.08,SW,223,2.0,4.0,86,0.00,,,0.02,weatherlink.com 1.10,2013-06-09 04:53:00,
2013-06-09 01:08:00,58.6,55.0,30.08,SW,222,3.0,3.0,87,0.00,,,0.02,weatherlink.com 1.10,2013-06-09 05:08:00,
2013-06-09 01:23:00,58.0,55.0,30.08,SW,222,2.0,3.0,88,0.00,,,0.02,weatherlink.com 1.10,2013-06-09 05:23:00,
2013-06-09 01:38:00,57.7,54.0,30.08,SW,222,0.0,2.0,88,0.00,,,0.02,weatherlink.com 1.10,2013-06-09 05:38:00,
2013-06-09 01:53:00,57.3,54.0,30.08,SW,222,0.0,0.0,89,0.00,,,0.02,weatherlink.com 1.10,2013-06-09 05:53:00,
2013-06-09 02:08:00,56.8,54.0,30.08,SW,222,0.0,2.0,89,0.00,,,0.02,weatherlink.com 1.10,2013-06-09 06:08:00,
2013-06-09 02:23:00,56.3,54.0,30.07,SW,222,3.0,3.0,90,0.00,,,0.02,weatherlink.com 1.10,2013-06-09 06:23:00,
2013-06-09 02:38:00,56.2,53.0,30.09,SW,222,0.0,3.0,90,0.00,,,0.02,weatherlink.com 1.10,2013-06-09 06:38:00,
2013-06-09 02:53:00,55.9,53.0,30.08,SW,222,0.0,0.0,90,0.00,,,0.02,weatherlink.com 1.10,2013-06-09 06:53:00,
2013-06-09 03:08:00,55.7,53.0,30.08,SW,222,0.0,0.0,91,0.00,,,0.02,weatherlink.com 1.10,2013-06-09 07:08:00,
2013-06-09 03:23:00,55.7,53.0,30.08,SW,222,0.0,0.0,91,0.00,,,0.02,weatherlink.com 1.10,2013-06-09 07:23:00,
2013-06-09 03:38:00,55.9,53.0,30.09,SW,222,3.0,4.0,90,0.00,,,0.02,weatherlink.com 1.10,2013-06-09 07:38:00,
2013-06-09 03:53:00,55.9,53.0,30.09,SW,222,3.0,4.0,90,0.00,,,0.02,weatherlink.com 1.10,2013-06-09 07:53:00,
2013-06-09 04:08:00,56.6,54.0,30.10,SW,222,3.0,5.0,89,0.00,,,0.02,weatherlink.com 1.10,2013-06-09 08:08:00,
2013-06-09 04:23:00,57.0,54.0,30.11,SW,222,4.0,5.0,89,0.00,,,0.02,weatherlink.com 1.10,2013-06-09 08:23:00,
2013-06-09 04:38:00,57.2,54.0,30.11,SW,222,5.0,7.0,88,0.00,,,0.02,weatherlink.com 1.10,2013-06-09 08:38:00,
2013-06-09 04:53:00,57.5,54.0,30.11,SW,222,5.0,7.0,87,0.00,,,0.02,weatherlink.com 1.10,2013-06-09 08:53:00,
2013-06-09 05:08:00,57.5,53.0,30.12,SW,222,5.0,7.0,86,0.00,,,0.02,weatherlink.com 1.10,2013-06-09 09:08:00,
2013-06-09 05:23:00,57.8,53.0,30.12,SW,222,4.0,8.0,85,0.00,,,0.02,weatherlink.com 1.10,2013-06-09 09:23:00,
2013-06-09 05:38:00,57.7,53.0,30.12,SW,220,4.0,7.0,85,0.00,,,0.02,weatherlink.com 1.10,2013-06-09 09:38:00,
2013-06-09 05:53:00,57.6,53.0,30.13,SW,233,2.0,7.0,85,0.00,,,0.02,weatherlink.com 1.10,2013-06-09 09:53:00,
2013-06-09 06:08:00,57.6,53.0,30.14,WSW,241,6.0,9.0,85,0.00,,,0.02,weatherlink.com 1.10,2013-06-09 10:08:00,
2013-06-09 06:23:00,58.0,53.0,30.14,WSW,253,3.0,8.0,84,0.00,,,0.02,weatherlink.com 1.10,2013-06-09 10:23:00,
2013-06-09 06:38:00,57.8,53.0,30.15,SW,230,4.0,8.0,85,0.00,,,0.02,weatherlink.com 1.10,2013-06-09 10:38:00,
2013-06-09 06:53:00,57.8,53.0,30.15,SW,231,4.0,7.0,85,0.00,,,0.02,weatherlink.com 1.10,2013-06-09 10:53:00,
2013-06-09 07:08:00,58.2,53.0,30.16,SW,235,5.0,7.0,84,0.00,,,0.02,weatherlink.com 1.10,2013-06-09 11:08:00,
2013-06-09 07:23:00,58.3,54.0,30.16,SW,235,4.0,8.0,85,0.00,,,0.02,weatherlink.com 1.10,2013-06-09 11:23:00,
2013-06-09 07:38:00,58.4,54.0,30.17,SW,235,6.0,7.0,85,0.00,,,0.02,weatherlink.com 1.10,2013-06-09 11:38:00,
2013-06-09 07:53:00,59.0,54.0,30.17,SW,222,7.0,10.0,83,0.00,,,0.02,weatherlink.com 1.10,2013-06-09 11:53:00,
2013-06-09 08:08:00,59.1,54.0,30.18,SW,222,8.0,11.0,84,0.00,,,0.02,weatherlink.com 1.10,2013-06-09 12:08:00,
2013-06-09 08:23:00,59.5,54.0,30.18,SW,235,6.0,9.0,83,0.00,,,0.02,weatherlink.com 1.10,2013-06-09 12:23:00,
2013-06-09 08:38:00,60.0,55.0,30.18,WSW,247,2.0,8.0,84,0.00,,,0.02,weatherlink.com 1.10,2013-06-09 12:38:00,
2013-06-09 08:53:00,60.5,56.0,30.18,SW,236,5.0,8.0,84,0.00,,,0.02,weatherlink.com 1.10,2013-06-09 12:53:00,
2013-06-09 09:08:00,61.0,56.0,30.19,WSW,247,3.0,6.0,83,0.00,,,0.02,weatherlink.com 1.10,2013-06-09 13:08:00,
2013-06-09 09:23:00,61.5,56.0,30.19,SW,216,0.0,8.0,81,0.00,,,0.02,weatherlink.com 1.10,2013-06-09 13:23:00,
2013-06-09 09:38:00,62.4,56.0,30.19,SW,233,4.0,8.0,80,0.00,,,0.02,weatherlink.com 1.10,2013-06-09 13:38:00,
2013-06-09 09:54:00,63.1,56.0,30.19,WSW,257,4.0,9.0,77,0.00,,,0.02,weatherlink.com 1.10,2013-06-09 13:54:00,
2013-06-09 10:09:00,63.9,57.0,30.19,SW,228,7.0,9.0,77,0.00,,,0.02,weatherlink.com 1.10,2013-06-09 14:09:00,
2013-06-09 10:24:00,64.5,56.0,30.19,West,259,4.0,8.0,74,0.00,,,0.02,weatherlink.com 1.10,2013-06-09 14:24:00,
2013-06-09 10:39:00,65.6,57.0,30.18,SW,234,6.0,8.0,74,0.00,,,0.02,weatherlink.com 1.10,2013-06-09 14:39:00,
2013-06-09 10:54:00,65.7,56.0,30.18,NW,320,3.0,9.0,71,0.00,,,0.02,weatherlink.com 1.10,2013-06-09 14:54:00,
2013-06-09 11:09:00,65.8,55.0,30.18,WNW,298,4.0,11.0,68,0.00,,,0.02,weatherlink.com 1.10,2013-06-09 15:09:00,
2013-06-09 11:24:00,66.5,56.0,30.18,NW,315,6.0,10.0,68,0.00,,,0.02,weatherlink.com 1.10,2013-06-09 15:24:00,
2013-06-09 11:39:00,66.8,55.0,30.19,NW,325,0.0,8.0,66,0.00,,,0.02,weatherlink.com 1.10,2013-06-09 15:39:00,
2013-06-09 11:54:00,67.0,56.0,30.19,NNW,343,2.0,7.0,67,0.00,,,0.02,weatherlink.com 1.10,2013-06-09 15:54:00,
2013-06-09 12:09:00,67.3,56.0,30.19,NW,314,4.0,7.0,68,0.00,,,0.02,weatherlink.com 1.10,2013-06-09 16:09:00,
2013-06-09 12:24:00,67.9,56.0,30.18,NE,42,5.0,7.0,65,0.00,,,0.02,weatherlink.com 1.10,2013-06-09 16:24:00,
2013-06-09 12:39:00,68.4,56.0,30.18,NW,317,0.0,6.0,65,0.00,,,0.02,weatherlink.com 1.10,2013-06-09 16:39:00,
2013-06-09 12:54:00,68.1,55.0,30.18,North,354,2.0,7.0,64,0.00,,,0.02,weatherlink.com 1.10,2013-06-09 16:54:00,
2013-06-09 13:09:00,68.8,55.0,30.18,NW,322,1.0,7.0,62,0.00,,,0.02,weatherlink.com 1.10,2013-06-09 17:09:00,
2013-06-09 13:24:00,68.6,55.0,30.17,NNW,328,3.0,6.0,63,0.00,,,0.02,weatherlink.com 1.10,2013-06-09 17:24:00,
2013-06-09 13:39:00,69.8,56.0,30.17,North,354,2.0,6.0,62,0.00,,,0.02,weatherlink.com 1.10,2013-06-09 17:39:00,
2013-06-09 13:54:00,69.7,56.0,30.16,NW,314,6.0,7.0,62,0.00,,,0.02,weatherlink.com 1.10,2013-06-09 17:54:00,
2013-06-09 14:09:00,70.1,56.0,30.16,NW,318,0.0,5.0,62,0.00,,,0.02,weatherlink.com 1.10,2013-06-09 18:09:00,
2013-06-09 14:24:00,70.9,55.0,30.17,NW,316,2.0,6.0,57,0.00,,,0.00,weatherlink.com 1.10,2013-06-09 18:24:00,
2013-06-09 14:39:00,71.0,55.0,30.16,NW,306,2.0,6.0,58,0.00,,,0.00,weatherlink.com 1.10,2013-06-09 18:39:00,
2013-06-09 14:54:00,71.5,56.0,30.15,NNE,12,5.0,9.0,58,0.00,,,0.00,weatherlink.com 1.10,2013-06-09 18:54:00,
2013-06-09 15:09:00,70.6,55.0,30.16,North,4,1.0,9.0,58,0.00,,,0.00,weatherlink.com 1.10,2013-06-09 19:09:00,
2013-06-09 15:24:00,70.5,54.0,30.16,South,181,0.0,5.0,56,0.00,,,0.00,weatherlink.com 1.10,2013-06-09 19:24:00,
2013-06-09 15:39:00,71.3,55.0,30.15,East,85,0.0,8.0,57,0.00,,,0.00,weatherlink.com 1.10,2013-06-09 19:39:00,
2013-06-09 15:54:00,71.2,55.0,30.15,WSW,249,0.0,4.0,56,0.00,,,0.00,weatherlink.com 1.10,2013-06-09 19:54:00,
2013-06-09 16:09:00,72.3,57.0,30.14,WSW,247,0.0,1.0,58,0.00,,,0.00,weatherlink.com 1.10,2013-06-09 20:09:00,
2013-06-09 16:24:00,72.6,55.0,30.14,WSW,249,1.0,6.0,55,0.00,,,0.00,weatherlink.com 1.10,2013-06-09 20:24:00,
2013-06-09 16:39:00,73.0,55.0,30.14,WSW,258,0.0,4.0,54,0.00,,,0.00,weatherlink.com 1.10,2013-06-09 20:39:00,
2013-06-09 16:54:00,73.1,56.0,30.14,WSW,245,1.0,3.0,56,0.00,,,0.00,weatherlink.com 1.10,2013-06-09 20:54:00,
2013-06-09 17:09:00,73.1,56.0,30.13,WSW,239,4.0,11.0,55,0.00,,,0.00,weatherlink.com 1.10,2013-06-09 21:09:00,
2013-06-09 17:24:00,73.2,55.0,30.13,West,267,3.0,4.0,53,0.00,,,0.00,weatherlink.com 1.10,2013-06-09 21:24:00,
2013-06-09 17:39:00,74.2,55.0,30.13,West,266,0.0,3.0,52,0.00,,,0.00,weatherlink.com 1.10,2013-06-09 21:39:00,
2013-06-09 17:54:00,73.5,55.0,30.13,NW,312,0.0,6.0,53,0.00,,,0.00,weatherlink.com 1.10,2013-06-09 21:54:00,
2013-06-09 18:09:00,73.4,55.0,30.13,WNW,289,0.0,1.0,53,0.00,,,0.00,weatherlink.com 1.10,2013-06-09 22:09:00,
2013-06-09 18:24:00,73.8,57.0,30.12,WNW,289,0.0,3.0,55,0.00,,,0.00,weatherlink.com 1.10,2013-06-09 22:24:00,
2013-06-09 18:39:00,73.1,55.0,30.12,North,4,0.0,3.0,54,0.00,,,0.00,weatherlink.com 1.10,2013-06-09 22:39:00,
2013-06-09 18:54:00,73.2,55.0,30.12,NNE,29,0.0,2.0,54,0.00,,,0.00,weatherlink.com 1.10,2013-06-09 22:54:00,
2013-06-09 19:09:00,72.4,56.0,30.13,NNE,32,0.0,4.0,56,0.00,,,0.00,weatherlink.com 1.10,2013-06-09 23:09:00,
2013-06-09 19:24:00,72.4,56.0,30.13,NNE,32,0.0,3.0,57,0.00,,,0.00,weatherlink.com 1.10,2013-06-09 23:24:00,
2013-06-09 19:39:00,71.7,56.0,30.13,NNE,33,0.0,5.0,58,0.00,,,0.00,weatherlink.com 1.10,2013-06-09 23:39:00,
2013-06-09 19:54:00,70.9,56.0,30.14,NNE,33,0.0,4.0,60,0.00,,,0.00,weatherlink.com 1.10,2013-06-09 23:54:00,
2013-06-09 20:09:00,70.1,56.0,30.14,NNE,33,0.0,5.0,61,0.00,,,0.00,weatherlink.com 1.10,2013-06-10 00:09:00,
2013-06-09 20:25:00,69.2,56.0,30.13,NNE,33,1.0,5.0,64,0.00,,,0.00,weatherlink.com 1.10,2013-06-10 00:25:00,
2013-06-09 20:40:00,68.4,57.0,30.13,NNE,33,0.0,4.0,66,0.00,,,0.00,weatherlink.com 1.10,2013-06-10 00:40:00,
2013-06-09 20:55:00,67.7,57.0,30.14,NNE,33,0.0,0.0,68,0.00,,,0.00,weatherlink.com 1.10,2013-06-10 00:55:00,
2013-06-09 21:10:00,66.5,57.0,30.14,NNE,33,0.0,0.0,71,0.00,,,0.00,weatherlink.com 1.10,2013-06-10 01:10:00,
2013-06-09 21:25:00,66.2,57.0,30.14,NNE,33,0.0,1.0,72,0.00,,,0.00,weatherlink.com 1.10,2013-06-10 01:25:00,
2013-06-09 21:40:00,66.0,57.0,30.14,NNE,33,0.0,1.0,72,0.00,,,0.00,weatherlink.com 1.10,2013-06-10 01:40:00,
2013-06-09 21:55:00,65.9,57.0,30.14,NE,56,4.0,5.0,72,0.00,,,0.00,weatherlink.com 1.10,2013-06-10 01:55:00,
2013-06-09 22:10:00,65.0,56.0,30.14,East,91,1.0,6.0,73,0.00,,,0.00,weatherlink.com 1.10,2013-06-10 02:10:00,
2013-06-09 22:25:00,64.3,56.0,30.14,East,85,3.0,6.0,75,0.00,,,0.00,weatherlink.com 1.10,2013-06-10 02:25:00,
2013-06-09 22:40:00,63.8,56.0,30.14,ESE,117,4.0,8.0,76,0.00,,,0.00,weatherlink.com 1.10,2013-06-10 02:40:00,
2013-06-09 22:55:00,63.0,56.0,30.14,ESE,116,2.0,8.0,79,0.00,,,0.00,weatherlink.com 1.10,2013-06-10 02:55:00,
2013-06-09 23:10:00,62.2,57.0,30.14,SE,129,3.0,7.0,82,0.00,,,0.00,weatherlink.com 1.10,2013-06-10 03:10:00,
2013-06-09 23:25:00,61.8,57.0,30.14,ESE,106,4.0,7.0,84,0.00,,,0.00,weatherlink.com 1.10,2013-06-10 03:25:00,
2013-06-09 23:40:00,61.6,57.0,30.13,ESE,114,4.0,8.0,85,0.00,,,0.00,weatherlink.com 1.10,2013-06-10 03:40:00,
2013-06-09 23:55:00,61.3,57.0,30.13,ESE,104,5.0,9.0,85,0.00,,,0.00,weatherlink.com 1.10,2013-06-10 03:55:00,